Location: Dackenheim
(49.5215°N, 8.1854°E)
Time: 22:36:29
(UTC+00:00)

CUBEBUG 2 - Visible Passes

Search period start: 12 March 2026 00:00
Search period end: 22 March 2026 00:00
Orbit: 548 x 629 km, 97.9° (Epoch: 12 March)

Date Brightness Start Highest point End Pass type
(mag) Time Alt. Az. Time Alt. Az. Time Alt. Az.
12 Mar ? 01:33:13 10° NNE 01:33:52 14° NNE 01:33:52 14° NNE visible
12 Mar ? 03:09:19 10° NNW 03:10:23 15° NNW 03:10:23 15° NNW visible
13 Mar ? 01:40:45 10° NNE 01:41:40 16° NNE 01:41:40 16° NNE visible
13 Mar ? 03:17:04 10° NNW 03:18:11 15° NNW 03:18:11 15° NNW visible
14 Mar ? 01:48:16 10° NNE 01:49:27 18° NNE 01:49:27 18° NNE visible
14 Mar ? 03:24:51 10° NNW 03:25:58 14° NNW 03:25:58 14° NNW visible
15 Mar ? 01:55:48 10° NNE 01:57:13 21° NNE 01:57:13 21° NNE visible
15 Mar ? 03:32:41 10° NNW 03:33:44 13° NW 03:33:44 13° NW visible
16 Mar ? 02:03:20 10° NNE 02:04:58 23° NNE 02:04:58 23° NNE visible
16 Mar ? 03:40:35 10° NNW 03:41:29 12° NW 03:41:29 12° NW visible
17 Mar ? 02:10:52 10° N 02:12:43 25° N 02:12:43 25° N visible
17 Mar ? 03:48:42 10° NW 03:49:14 11° NW 03:49:14 11° NW visible
18 Mar ? 02:18:24 10° N 02:20:27 27° N 02:20:27 27° N visible
19 Mar ? 00:51:14 10° NE 00:51:39 12° NE 00:51:39 12° NE visible
19 Mar ? 02:25:57 10° N 02:28:10 28° N 02:28:10 28° N visible
20 Mar ? 00:58:30 10° NE 00:59:21 14° NE 00:59:21 14° NE visible
20 Mar ? 02:33:30 10° N 02:35:52 29° NNW 02:35:52 29° NNW visible
21 Mar ? 01:05:49 10° NE 01:07:03 16° NE 01:07:03 16° NE visible
21 Mar ? 02:41:03 10° N 02:43:34 28° NNW 02:43:34 28° NNW visible
